Location: Potawatomi Wildlife Park
(41.2308°N, 86.1050°W)
Time: 19:42:03
(UTC-04:00)

Daily predictions for brighter satellites

Satellite Brightness Start Highest point End
(mag) Time Altitude Azimuth Time Altitude Azimuth Time Altitude Azimuth
SL-8 R/B 4.1 20:53:29 10° WNW 20:58:15 61° SW 21:03:00 10° SE
Lacrosse 4 Rocket 3.3 20:56:29 10° N 20:59:25 18° NE 21:02:22 10° E
Cosmos 2227 Rocket 3.9 20:54:44 10° NW 20:59:47 34° WSW 21:04:49 10° SSW
CZ-2D R/B 3.5 20:56:04 10° SSE 20:59:52 55° ENE 21:03:42 10° N
Resurs 1-3 3.7 20:56:44 10° SSE 21:01:04 64° ENE 21:05:25 10° N
Cosmos 1869 Rocket 3.8 21:00:12 10° N 21:04:36 52° E 21:08:57 10° SSE
Cosmos 1900 4.5 21:00:13 10° NNW 21:05:18 67° ENE 21:10:24 10° SE
Cosmos 1825 3.9 21:02:56 10° NNE 21:05:30 17° ENE 21:08:05 10° ESE
Cosmos 1302 Rocket 4.1 21:03:27 10° S 21:08:30 53° ESE 21:13:33 10° NNE
SL-16 R/B 3.2 21:04:03 10° SSE 21:08:31 25° ESE 21:13:01 10° NE
Envisat 3.7 21:04:13 10° SE 21:08:46 35° ENE 21:13:22 10° N
Milstar 3 3.9 21:04:09 10° WSW 21:11:31 31° S 21:17:19 10° ESE
Cosmos 1151 Rocket 4.5 21:07:43 10° SSW 21:11:51 43° WNW 21:15:58 10° N
Cosmos 1939 Rocket 4.0 21:10:08 10° SE 21:13:32 26° ENE 21:16:56 10° NNE
DNEPR-1 R/B 4.3 21:09:24 10° SW 21:15:33 82° WNW 21:20:35 10° NNE
CZ-4B DEB 3.7 21:15:52 11° SE 21:18:25 27° ENE 21:21:04 10° NNE
ATLAS 5 CENTAUR R/B 4.0 21:14:47 10° N 21:19:00 20° NE 21:23:28 10° E
OAO 3 Rocket 4.0 21:21:11 10° SW 21:25:36 34° SSE 21:29:18 14° ESE
USA 234 3.4 21:20:01 11° ESE 21:26:26 73° NE 21:32:59 10° NW
Resurs 01 Rocket 2.4 21:25:21 10° S 21:29:41 53° W 21:34:04 10° NNW
Atlas Centaur 2 4.1 21:24:49 10° SSW 21:30:00 21° SSE 21:34:13 14° ESE
Helios 1A 3.0 21:27:35 10° SSE 21:31:47 70° ENE 21:36:01 10° N
GRACE-1 4.2 21:31:30 10° N 21:34:14 65° W 21:36:57 10° S
GRACE-2 4.2 21:31:54 10° N 21:34:38 65° W 21:37:21 10° S
Cosmos 2227 4.2 21:30:01 10° NNW 21:35:49 83° ENE 21:41:24 11° SSE
Molniya-1 2.2 21:34:49 10° SSW 21:36:28 78° SE 21:38:37 10° NE
SAR-Lupe-4 3.5 21:32:57 10° SSE 21:36:31 74° ENE 21:40:07 10° N
Cosmos 2360 4.3 21:31:04 10° SSW 21:36:48 85° WNW 21:42:35 10° NNE
FALCON 9 R/B 1.9 21:36:03 10° SW 21:37:46 17° S 21:38:05 17° SSE
Cosmos 2142 Rocket 4.4 21:36:18 10° S 21:42:23 72° E 21:48:32 10° NNE
ERS-1 Rocket 3.6 21:42:12 18° SE 21:45:26 37° ENE 21:50:02 10° N
Cosmos 1408 2.7 21:44:07 10° N 21:47:47 56° E 21:50:06 20° SSE
Cosmos 1486 Rocket 4.3 21:43:15 10° NNW 21:48:27 69° WSW 21:53:39 10° S
ERBS 2.4 21:47:39 10° NW 21:51:06 68° NE 21:52:42 29° ESE
Cosmos 1455 3.7 21:48:44 10° SSW 21:52:18 38° WNW 21:55:52 10° N
SAR-Lupe-1 4.1 21:50:59 13° S 21:54:04 76° WSW 21:57:40 10° NNW
Cosmos 1869 3.5 21:52:18 10° SSW 21:56:13 70° W 22:00:10 10° N
Cosmos 220 Rocket 4.0 21:55:13 10° NNW 21:59:42 83° ENE 22:02:28 23° SSE
CENTAUR R/B 4.3 21:54:48 10° WSW 22:00:25 35° NW 22:06:46 10° NNE
CZ-3B DEB 3.5 21:59:27 10° W 22:00:48 12° WSW 22:01:55 10° SW
Cosmos 1992 Rocket 4.1 21:57:19 10° S 22:02:22 52° ESE 22:07:28 10° NNE
SeaSat 1 3.4 22:00:11 22° E 22:02:27 32° NE 22:06:49 10° N
Cosmos 2026 Rocket 4.0 21:57:40 10° N 22:03:58 89° E 22:09:53 11° S
H-2A R/B 4.3 22:07:17 10° ENE 22:07:33 10° ENE 22:07:51 10° NE
Cosmos 1908 Rocket 4.4 22:06:30 10° NNE 22:10:23 31° ENE 22:11:04 30° E
USA 186 4.4 22:12:43 10° SW 22:14:14 14° W 22:15:49 10° WNW
Cosmos 1933 3.2 22:14:41 28° S 22:16:42 70° E 22:20:43 10° NNE
Cosmos 1503 Rocket 4.2 22:14:22 10° NNW 22:19:37 71° WSW 22:22:48 24° S
YAOGAN 6 2.6 22:20:14 40° S 22:21:29 82° WSW 22:25:08 10° NNW
Cosmos 2263 Rocket 2.2 22:16:31 10° NNW 22:22:04 67° ENE 22:24:22 35° SE
Cosmos 1354 Rocket 4.3 22:17:43 10° NNW 22:22:58 66° WSW 22:26:09 23° S
Abrixas rocket 3.7 22:20:07 10° W 22:23:11 35° NNW 22:25:18 17° NE
H-2A R/B 3.0 22:24:03 26° E 22:24:52 27° ENE 22:29:02 10° N
Cosmos 2322 Rocket 2.3 22:19:35 10° SSW 22:25:11 75° WNW 22:30:50 10° NNE
Cosmos 1655 Rocket 4.2 22:19:20 10° N 22:25:45 77° W 22:30:51 17° S
Cosmos 397 4.3 22:21:58 10° NNW 22:26:16 88° NE 22:27:16 50° SSE
Terra 3.7 22:26:53 16° ENE 22:27:08 16° ENE 22:29:59 10° NNE
Cosmos 1733 Rocket 3.5 22:27:48 10° NNW 22:32:12 62° W 22:34:28 27° SSW
Meteor 2-10 Rocket 3.7 22:30:48 27° S 22:34:03 68° E 22:39:50 10° NNE
Cosmos 2360 Rocket 2.3 22:34:16 36° SSE 22:36:14 52° ESE 22:41:44 10° NNE
Cosmos 1862 Rocket 4.0 22:34:03 16° SSW 22:37:32 62° W 22:41:59 10° N
SL-08 RB Rocket 4.1 22:37:52 45° E 22:38:17 46° ENE 22:42:40 10° N
Lacrosse 4 Rocket 2.0 22:34:12 10° NW 22:38:25 53° WSW 22:39:39 39° SSW
Cosmos 1825 4.0 22:37:50 10° NNW 22:41:09 29° W 22:43:20 17° SW
Cosmos 2322 3.8 22:40:41 45° SE 22:41:39 50° ESE 22:47:09 10° NE
Cosmos 1862 4.3 22:38:42 10° NNW 22:42:33 45° W 22:44:08 29° SW
NOAA 11 4.1 22:42:48 40° SSE 22:44:54 89° WSW 22:50:26 10° NNW
Cosmos 968 Rocket 3.5 22:40:23 10° NNW 22:45:31 60° ENE 22:46:23 52° ESE
YAOGAN 11 4.1 22:50:13 62° S 22:50:54 78° WSW 22:55:17 10° NNW
Cosmos 2266 Rocket 3.9 22:45:30 10° N 22:51:46 75° E 22:53:44 46° SSE
SL-16 R/B 3.2 22:46:50 10° SW 22:52:17 47° WNW 22:57:47 10° NNE
Okean 1-7 3.8 22:55:18 39° NE 22:55:18 39° NE 22:58:30 10° NNE
SPOT 5 2.8 22:54:50 62° S 22:55:40 88° WSW 23:00:26 10° NNW
Cosmos 1703 Rocket 3.4 22:57:21 81° E 22:57:21 81° E 23:01:45 10° N
Cosmos 2221 Rocket 4.0 23:00:02 52° NE 23:00:02 52° NE 23:03:37 10° NNE
Cosmos 2333 Rocket 4.5 23:04:54 10° ENE 23:04:54 10° ENE 23:05:02 10° ENE
ATLAS 5 CENTAUR R/B 2.3 22:58:32 10° NNW 23:04:34 80° NE 23:05:54 58° SE
MetOp-B 4.5 23:03:12 42° SSW 23:04:50 60° WSW 23:10:09 10° NNW
Nimbus 7 Rocket 4.3 23:00:25 10° NNE 23:06:22 83° ESE 23:08:12 48° S
OAO 3 Rocket 4.4 23:04:05 10° WSW 23:07:08 31° SW 23:07:08 31° SW
Meteor 1-26 Rocket 4.4 23:06:23 35° SSW 23:08:50 72° W 23:14:37 10° N
USA 234 4.4 23:07:21 25° SSW 23:09:45 32° SW 23:15:29 10° WNW
SPOT 1/Viking Rocket 3.4 23:11:28 76° SSE 23:11:55 90° WSW 23:17:11 10° NNW
ARGOS 3.3 23:11:51 54° SSW 23:12:53 67° WSW 23:18:14 10° NNW
Cosmos 2278 Rocket 4.0 23:09:39 10° N 23:13:34 19° NE 23:14:18 18° ENE
Atlas Centaur 2 3.8 23:11:42 10° SW 23:16:54 33° SSW 23:16:54 33° SSW
Cosmos 1844 Rocket 3.1 23:20:30 10° NNW 23:25:44 48° NE 23:25:44 48° NE
Nadezhda 2 Rocket 4.4 23:20:58 10° N 23:27:27 86° E 23:28:13 71° SSE
MOS 1-B Rocket 4.3 23:26:13 48° SSW 23:27:34 59° WSW 23:33:12 10° NNW
Meteor 1-10 Rocket 4.3 23:35:20 69° ENE 23:35:20 69° ENE 23:40:45 10° NNE
SeaSat 1 3.5 23:39:59 35° WSW 23:39:59 35° WSW 23:44:25 10° NW
Cosmos 2219 Rocket 3.6 23:45:20 27° NE 23:45:20 27° NE 23:48:03 10° NE
H-2A R/B 3.2 23:44:20 40° NNW 23:44:20 40° NNW 23:47:11 10° NNW
Cosmos 1777 Rocket 4.2 23:38:25 10° NNW 23:43:02 67° NW 23:43:02 67° NW
S3M 4.3 23:51:34 53° NE 23:51:34 53° NE 23:56:39 10° NNE
